Starlink 31557

operational
NORAD ID: 59357 Int'l Des: 2024-060 Owner: SPXS Country: US Constellation: starlink
LEOCIRCULAR

Über Starlink 31557

Beschreibung wird geladen...

Live-Position

3D-Globus wird geladen...

Nächste Überflüge

Höhenverlauf

Altitude vs Time

uPlot chart will show altitude changes over time

Zweizeiliger Elementsatz

1 59357U 24060K 25354.40102723 -.00000148 00000-0 41272-5 0 9994
2 59357 43.0006 343.5447 0000421 246.7347 113.3460 15.27571263 97984
Epoch: 20. Dez. 2025 • Age: 13 hours

Aktueller Status

Höhe 485.5 km
Geschwindigkeit 7.63 km/s
Subsatellitenpunkt 38.67°N, 32°E
Startdatum 31. März 2024
Alter 1.7 years
Typ internet

Technische Details

Klassifizierung Payload
Masse 730.00 kg
Trockenmasse 700.00 kg
Gesamtmasse 730.00 kg
Länge 0.30 m
Durchmesser 4.10 m
Spannweite 29.00 m
Form Box + pan
Hersteller SPXS
Bus-Typ Starlink V2M
Phasenstatus In Orbit
Besitzer/Staat SPXS/US

Große Konstellationen

Loading constellations...